[Iaude] MPEC G120: 2023 TS3 [a=1.23,e=0.88,i=11.3,H=20.31]

mpec at cfa.harvard.edu mpec at cfa.harvard.edu
Tue Apr 9 10:17:28 EDT 2024


M.P.E.C. 2024-G120                                Issued 2024 April 9, 14:16 UT

     The Minor Planet Electronic Circulars contain information on unusual
         minor planets, routine data on comets and natural satellites,
         and occasional editorial announcements.  They are published
    on behalf of Division F of the International Astronomical Union by the
          Minor Planet Center, Smithsonian Astrophysical Observatory,
                          Cambridge, MA 02138, U.S.A.
			  
             Prepared using the Tamkin Foundation Computer Network

                              MPC at CFA.HARVARD.EDU
            URL https://www.minorplanetcenter.net/    ISSN 1523-6714

                                    2023 TS3                                    


                           Revision to MPEC 2023-T115                           

Additional Observations:
     K23T03S 5C2006 12 24.29023002 27 51.80 -04 33 27.2                WEG120T14
     K23T03S 5C2006 12 24.30022902 27 50.76 -04 33 26.2                WEG120T14
     K23T03S 5C2006 12 24.30674602 27 50.13 -04 33 25.7                WEG120T14
     K23T03S 5C2006 12 24.30994202 27 49.79 -04 33 25.6                WEG120T14
     K23T03S &C2019 10 09.17392303 09 58.76 -05 11 55.6                WEG120W84
     K23T03S &C2019 10 09.17815303 09 57.69 -05 12 01.8                WEG120W84
     K23T03S &C2021 12 07.25617903 16 02.82 -04 48 31.9                WEG120W84
     K23T03S &C2021 12 07.25709903 16 02.65 -04 48 31.7                WEG120W84

Observer details:
T14 Canada-France-Hawaii Telescope, Maunakea.  Observer .  Measurer S. Deen.
    3.58-m Canada-France-Hawaii Telescope + CCD.
W84 Cerro Tololo-DECam.  Observers N. Shipp, A. Palmese, A. Rest.  Measurer S.
    Deen.  4.0-m reflector + CCD.

First and last observations above in comparison with prediction:
Residuals in seconds of arc, reference and Delta-T
061224 T14 81.9- 58.0-    211207 W84 15.1-  7.1-    MPO775379   +0.00 days

Orbital elements:
2023 TS3                                                 Earth MOID = 0.1249 AU
Epoch 2024 Mar. 31.0 TT = JDT 2460400.5                 Veres                   
M 168.71973              (2000.0)            P               Q                  
n   0.72533120     Peri.   74.06138     -0.68313871     +0.72452501             
a   1.2268133      Node   152.16141     -0.72231058     -0.65185958             
e   0.8842697      Incl.   11.30830     -0.10765192     -0.22392543             
P   1.36           H   20.31          G   0.15           U   3                  
Residuals in seconds of arc
061224 T14  0.4-  0.2-    231008 474  0.1-  0.3-    231009 I52  0.0   0.3-
061224 T14  0.3-  0.0     231008 E23  0.4-  0.1+    231009 I52  0.0   0.1-
061224 T14  0.4+  0.1-    231008 E23  0.6-  0.3+    231009 I52  0.1+  0.0
061224 T14  0.3+  0.3-    231008 E23  0.3-  0.0     231009 I52  0.0   0.2-
191009 W84  0.1+  0.1-    231008 L01  0.6-  0.5+    231011 703  0.0   1.1+
191009 W84  0.2-  0.3-    231008 L01  0.2-  0.3+    231011 703  1.2-  0.1-
211207 W84  0.1+  0.4-    231008 L01  0.1+  0.3+    231014 L87  1.4-  0.0
211207 W84  0.0   0.1+    231009 I93  0.2-  0.1+    231014 L87  0.0   0.2+
231003 703  0.5+  0.8-    231009 I93  0.2-  0.3+    231014 L87  0.5-  0.3+
231003 703  0.4-  0.7+    231009 I93  0.0   0.5+    231016 F51  0.1+  0.1-
231003 703  0.1-  0.1+    231009 X10  0.3-  0.1+    231016 F51  0.1-  0.1-
231007 F51  0.1-  0.1-    231009 X10  0.1+  0.0     231016 F51  0.1-  0.0
231007 F51  0.2+  0.0     231009 X10  0.4+  0.1+    231016 F51  0.1-  0.1-
231007 F51  0.1-  0.1-    231009 X10  0.5-  0.3-    231017 703  0.3-  0.5+
231008 W94  0.1+  0.0     231009 X10  0.1-  0.3-    231017 703 (1.8+  0.5+)
231008 W94  0.2-  0.3-    231009 X10  0.3-  0.1+    231017 703  1.5+  0.8+
231008 W94  0.3+  0.1-    231009 X10  0.1-  0.4-    231018 G96  0.0   0.4+
231008 X10  0.1+  0.1-    231009 X10  0.3-  0.0     231018 G96  0.0   0.2-
231008 X10  0.1-  0.2-    231009 X10  0.0   0.0     231018 G96  0.2-  0.1-
231008 X10  0.2-  0.0     231009 858  0.6+  0.2-    231021 F51  0.1-  0.1-
231008 I52  0.2+  0.1-    231009 W94  0.6-  0.2-    231021 F51  0.1-  0.0
231008 I52  0.2+  0.1+    231009 W94  0.9-  0.3-    231021 F51  0.2-  0.1-
231008 I52  0.1+  0.0     231009 W94  0.1-  0.3-    231102 291  0.2+  0.1+
231008 I52  0.1-  0.1-    231009 858  0.1+  0.2+    231102 291  0.1-  0.1+
231008 474  0.3-  0.3-    231009 858  0.4+  0.2+    231102 291  0.0   0.2-
231008 474  0.3+  0.3-    231009 703  0.8+  1.1+    231103 F52  0.2-  0.2-
231008 474  0.5-  0.2-    231009 703  0.2+  1.7-    231103 F52  0.0   0.1-
231008 474  0.1-  0.1-    231009 703  0.9+  0.9-    231103 F52  0.0   0.0

Ephemeris:
2023 TS3                 a,e,i = 1.23, 0.88, 11                  q = 0.1420
Date    TT    R. A. (2000) Decl.     Delta      r    Elong.  Phase     V
2024 03 10    01 51 08.0 +02 43 59   2.9783  2.2788    38.0    15.6    25.3
...
2024 03 25    02 10 22.9 +04 46 17   3.1260  2.3002    28.6    12.0    25.3
...
2024 04 02    02 20 55.9 +05 47 58   3.1868  2.3071    23.7    10.0    25.3
...
2024 04 08    02 28 58.0 +06 32 32   3.2238  2.3102    20.2     8.6    25.3
2024 04 09    02 30 19.0 +06 39 48   3.2293  2.3106    19.6     8.4    25.3
2024 04 10    02 31 40.1 +06 47 02   3.2345  2.3109    19.1     8.1    25.2
...
2024 04 16    02 39 50.1 +07 29 28   3.2616  2.3116    15.7     6.8    25.2
...
2024 04 24    02 50 51.7 +08 23 23   3.2858  2.3099    11.7     5.1    25.1
...
2024 05 09    03 11 57.5 +09 55 52   3.2949  2.2982     7.6     3.3    25.0

A. U. Tomatic                (C) Copyright 2024 MPC           M.P.E.C. 2024-G120





More information about the Iaude mailing list